Location: Nashville
(36.1660°N, 86.7840°W)
Time: 12:54:03
(UTC-06:00)

N. Korean satellite - Visible Passes

Search period start: 07 December 2021 00:00
Search period end: 17 December 2021 00:00
Orbit: 446 x 495 km, 97.3° (Epoch: 06 December)

Date Brightness Start Highest point End Pass type
(mag) Time Alt. Az. Time Alt. Az. Time Alt. Az.
07 Dec 6.5 05:17:35 10° N 05:20:51 48° WNW 05:24:07 10° SSW visible
07 Dec 10.1 17:24:14 10° WSW 17:25:23 11° W 17:26:32 10° WNW visible
08 Dec 6.9 04:49:01 10° NNE 04:52:21 58° E 04:55:41 10° S visible
09 Dec 8.9 04:21:03 10° NE 04:23:44 22° E 04:26:26 10° SSE visible
09 Dec 8.0 05:54:39 10° NNW 05:56:44 16° WNW 05:58:48 10° WSW visible
10 Dec 6.9 05:26:15 18° NNW 05:28:21 37° WNW 05:31:30 10° SW visible
11 Dec 6.4 04:58:05 26° NNE 04:59:51 78° ESE 05:03:14 10° S visible
11 Dec 9.5 17:01:31 10° SSW 17:04:13 21° W 17:06:54 10° NW visible
12 Dec 8.5 04:29:43 20° NE 04:31:14 28° E 04:34:12 10° SSE visible
12 Dec 8.3 06:03:49 12° WNW 06:04:08 13° WNW 06:05:39 10° W visible
13 Dec 9.8 04:01:17 10° ENE 04:02:31 11° E 04:03:44 10° ESE visible
13 Dec 7.2 05:35:21 28° WNW 05:35:45 29° WNW 05:38:44 10° SW visible
14 Dec 6.2 05:06:48 64° N 05:07:15 80° WNW 05:10:40 10° SSW visible
14 Dec 9.6 17:09:23 10° SW 17:11:40 17° W 17:13:57 10° NW visible
15 Dec 8.0 04:38:13 34° E 04:38:38 36° E 04:41:49 10° SSE visible
16 Dec 9.5 04:09:34 14° E 04:09:56 15° E 04:11:57 10° SE visible
16 Dec 7.6 05:43:40 22° W 05:43:40 22° W 05:45:52 10° SW visible
